Regional Weather Roundup
Issued by NWS

Home | Current Version | Previous Version | Graphics & Text | Print | Product List | Glossary On
Versions: 1 2 3 4 5 6 7 8 9 10 11 12 13 14 15 16 17 18 19 20 21 22 23 24 25 26 27 28 29 30 31 32 33 34 35 36 37 38 39 40 41 42 43 44 45 46 47 48 49 50
000
ASUS45 KTFX 190810
RWRMT
MONTANA REGIONAL WEATHER ROUNDUP
NATIONAL WEATHER SERVICE GREAT FALLS MT
200 AM MDT SAT AUG 19 2017

NOTE: "FAIR" INDICATES FEW OR NO CLOUDS BELOW 12000 FEET WITH NO
SIGNIFICANT WEATHER AND/OR OBSTRUCTIONS TO VISIBILITY.

MTZ001>007-043-190900-
WEST OF THE DIVIDE

CITY           SKY/WX    TMP DP  RH WIND       PRES   REMARKS
KALISPELL      CLEAR     55  38  52 S3        29.93R
MISSOULA       MOCLDY    63  35  35 N8        29.98S
BUTTE          PTCLDY    54  25  32 S8        30.10S
MULLAN PASS    CLEAR     56  33  42 VRB3      30.12S
ANACONDA         N/A     63  27  25 SW6       30.06S
EUREKA           N/A     63  37  39 MISG      29.88S
HAMILTON         N/A     68  37  32 N5        30.02R
LIBBY            N/A     59  37  44 CALM      29.89F
PLAINS           N/A     57  35  43 MISG      29.96S
RONAN            N/A     55  40  57 CALM      30.03R
$$

MTZ008-052>055-190900-
SOUTHWEST MONTANA

CITY           SKY/WX    TMP DP  RH WIND       PRES   REMARKS
BOZEMAN        CLEAR     52  39  61 SE9       30.03S
DILLON         CLEAR     61  33  35 S12       30.06S
W YELLOWSTONE  CLEAR     45  36  70 CALM      30.21S
ENNIS          PTCLDY    63  36  36 S13       30.12F
THREE FORKS      N/A     52  39  61 CALM      30.00F
$$

MTZ009-010-012-014-046-048-049-054-190900-
EAST SLOPES AND CENTRAL MONTANA

CITY           SKY/WX    TMP DP  RH WIND       PRES   REMARKS
CUT BANK       PTCLDY    64  33  31 W16       29.88R
GREAT FALLS    CLOUDY    74  28  18 W16       29.89F
MALMSTROM AFB  CLOUDY    75  30  19 SW14      29.89S
HELENA         MOCLDY    69  32  25 W6        29.98R
AUGUSTA        MOCLDY    71  28  20 W15       29.93F
BOWMANS CRNR   MOCLDY    67  28  22 SW14      29.93S
CHOTEAU          N/A     70  34  26 CALM      29.92S
FAIRFIELD      MOCLDY    72  32  23 SW15G23   29.90S
POWER            N/A     70  32  24 SW12      29.89S
RAYNESFORD       N/A     75  25  15 W17G26    29.93R
ULM            CLOUDY    74  27  17 W10       29.91S
$$

MTZ011-013-016-021-045-047-050-051-190900-
NORTH CENTRAL MONTANA

CITY           SKY/WX    TMP DP  RH WIND       PRES   REMARKS
HAVRE          CLOUDY    63  35  35 SW7       29.79R
LEWISTOWN      CLOUDY    58  31  35 E5        29.93R
N BAR RANCH    CLOUDY    61  27  27 CALM      29.96S
CHINOOK          N/A     63  41  45 CALM      29.77S
DENTON           N/A     72  28  19 W12       29.85S
GEYSER           N/A     71  27  19 W14       29.91S
GRASS RANGE    MOCLDY    65  27  24 NW7       29.87S
JUDITH GAP     CLOUDY    65  26  23 S7        29.95F
WINIFRED       MOCLDY    68  26  20 SW6       29.87S
$$

MTZ017>020-022>027-061-062-190900-
NORTHEAST MONTANA

CITY           SKY/WX    TMP DP  RH WIND       PRES   REMARKS
GLASGOW        MOCLDY    65  41  41 E13       29.74F
JORDAN           N/A     54  31  41 W5        29.78F
SIDNEY         CLEAR     63  50  62 SW3       29.80F
WOLF POINT     CLOUDY    67  45  45 NE5       29.75F
MALTA          PTCLDY    57  39  51 W7        29.75S
PLENTYWOOD       N/A     64  50  59 CALM      29.78F
POPLAR           N/A     72  46  40 S7        29.76F
SCOBEY           N/A     61  46  57 S1        29.78F
$$

MTZ028>42-056>058-190900-
SOUTHCENTRAL AND SOUTHEAST MONTANA

CITY           SKY/WX    TMP DP  RH WIND       PRES   REMARKS
BAKER          CLEAR     59  44  57 SE9       29.86F
BILLINGS       CLEAR     64  33  31 SW10      29.89S
LIVINGSTON     CLEAR     56  32  40 NW13      30.01S
MILES CITY     CLEAR     66  30  26 SE8       29.80F
BIG TIMBER     CLOUDY    68  30  24 W18       29.99S
EKALAKA          N/A     65  39  38 SE7       29.88F
HARLOWTON        N/A     66  28  23 MISG      29.95S
LAUREL           N/A     63  33  32 CALM      29.91S
ROUNDUP          N/A     64  25  23 SW12      29.82S
$$

REGIONAL REPORTS...DAKOTAS

CITY           SKY/WX    TMP DP  RH WIND       PRES   REMARKS
WILLISTON      CLEAR     68  53  58 S6        29.81F
MINOT          CLEAR     69  53  56 S10       29.82F
DICKINSON      CLEAR     61  52  72 S10       29.86F
BEACH          CLOUDY    57  50  77 SE7       29.87F
CROSBY           N/A     64  54  68 S12G17    29.79F
TIOGA            N/A     64  54  68 S13       29.84F
WATFORD CITY     N/A     64  52  63 CALM      29.82F
BISMARCK       CLEAR     59  55  87 CALM      29.90F
GRAND FORKS    CLEAR     58  56  93 SW7       29.83F
FARGO          CLEAR     62  59  90 SW7       29.87S
BUFFALO SD       N/A     62  48  60 E3        29.83F
RAPID CITY     CLEAR     60  48  64 S9        29.95F
$$

REGIONAL REPORTS...WYOMING/IDAHO/WASHINGTON

CITY           SKY/WX    TMP DP  RH WIND       PRES   REMARKS
GILLETTE       CLEAR     67  43  41 S16       29.96F
SHERIDAN       CLEAR     55  43  63 CALM      29.94F
BUFFALO WY     CLEAR     67  32  27 W9        30.01F
YELLOWSTONE LA   N/A     40  34  79 NW3       30.31S
IDAHO FALLS    CLEAR     60  40  47 S3        30.08F
SALMON         CLOUDY    54  40  59 CALM      30.05R
BOISE          CLEAR     67  29  24 SE8       29.98F
SPOKANE        PTCLDY    64  46  52 SW10      29.95S
$$

REGIONAL REPORTS...ALBERTA

CITY           SKY/WX    TMP DP  RH WIND       PRES   REMARKS
EDMONTON       CLEAR     50  48  93 W8        29.85F
CALGARY        MOCLDY    50  43  76 N16       29.94R
LETHBRIDGE     CLEAR     63  50  63 N21       29.87R
MEDICINE HAT   CLEAR     66  48  52 NW21G37   29.75R
$$

REGIONAL REPORTS...SASKATCHEWAN

CITY           SKY/WX    TMP DP  RH WIND       PRES   REMARKS
SWIFT CURRENT  CLEAR     64  41  42 SW14      29.67F
REGINA         PTCLDY    63  46  55 SE13      29.69F
SASKATOON      PTCLDY    64  48  55 SE10G17   29.60F
$$



USA.gov is the U.S. government's official web portal to all federal, state and local government web resources and services.